Flag for Slovakia Weather past 2 weeks in Prešov, Slovakia

Now
68 °F

Sunny.


Feels Like: 68 °F
Forecast: 57 / 63 °F
Wind: 13 mph from Northeast

Location: Kosice - Barca

Current Time: May 25, 2015 at 2:06:27 PM

Latest Report: May 25, 2015 at 1:30 PM


Visibility: 10 mi

Pressure: 29.80 "Hg

Humidity: 73%

Dew point: 59 °F

Location of PrešovLocation

Historic Weather in Prešov — Graph

°F

Prešov temperature yesterday

Maximum temperature yesterday: 64 °F (at 11:30 AM)
Minimum temperature yesterday: 48 °F (at 3:30 AM)
Average temperature yesterday: 58 °F

Past Weeks' High & Low Weather Summary

 TemperatureHumidityPressure
High79 °F (May 19, 3:30 PM)100% (May 12, 3:30 AM)30.33 "Hg (May 12, 3:30 AM)
Low37 °F (May 12, 2:30 AM)27% (May 12, 4:30 PM)29.71 "Hg (May 14, 3:30 PM)
Average59 °F68%30.01 "Hg
* Reported May 10 1:00 PM — May 25 1:00 PM, Prešov, Weather by CustomWeather, © 2015

Note: Actual official high and low records may vary slightly from our data, if they occured in-between our weather recording intervals... More about our weather records

Advertising

Prešov weather history for previous 24 hours

 ConditionsComfort  
Time TempWeatherWind HumidityBarometerVisibility
1:00 PM
Mon, May 25
68 °FSunny.14 mph73%29.80 "Hg10 mi
12:30 PM66 °FSunny.14 mph73%29.83 "Hg10 mi
12:00 PM64 °FSunny.15 mph78%29.83 "Hg10 mi
11:30 AM64 °FSunny.13 mph78%29.83 "Hg10 mi
11:00 AM61 °FScattered clouds.14 mph88%29.83 "HgN/A
10:30 AM59 °FSprinkles. Scattered clouds.10 mph82%29.83 "HgN/A
10:00 AM59 °FThunderstorms. Scattered clouds.9 mph88%29.86 "HgN/A
9:30 AM61 °FSprinkles. Partly sunny.14 mph77%29.83 "HgN/A
9:00 AM61 °FSunny.14 mph72%29.83 "Hg10 mi
8:30 AM59 °FSunny.15 mph77%29.86 "Hg10 mi
8:00 AM59 °FSunny.15 mph77%29.86 "Hg10 mi
7:30 AM59 °FPartly sunny.16 mph82%29.86 "HgN/A
7:00 AM57 °FBroken clouds.17 mph82%29.86 "HgN/A
6:30 AM57 °FPartly sunny.20 mph82%29.86 "HgN/A
6:00 AM57 °FSprinkles. Partly sunny.20 mph82%29.86 "HgN/A
5:30 AM57 °FPassing clouds.15 mph82%29.86 "HgN/A
5:00 AM57 °FPassing clouds.15 mph82%29.86 "HgN/A
4:30 AM57 °FClear.21 mph77%29.86 "Hg10 mi
4:00 AM57 °FClear.18 mph77%29.86 "Hg10 mi
3:30 AM57 °FClear.20 mph77%29.86 "Hg10 mi
3:00 AM57 °FClear.18 mph77%29.89 "Hg10 mi
2:30 AM57 °FClear.17 mph77%29.89 "Hg10 mi
2:00 AM57 °FPassing clouds.17 mph77%29.89 "HgN/A
1:30 AM57 °FPassing clouds.21 mph77%29.89 "HgN/A
1:00 AM57 °FPassing clouds.21 mph77%29.92 "HgN/A
12:30 AM57 °FPassing clouds.20 mph77%29.92 "HgN/A
12:00 AM57 °FPassing clouds.18 mph77%29.95 "HgN/A
11:30 PM
Sun, May 24
57 °FPassing clouds.18 mph77%29.92 "HgN/A
11:00 PM57 °FPassing clouds.20 mph77%29.95 "HgN/A
10:30 PM57 °FPassing clouds.20 mph77%29.95 "HgN/A
10:00 PM57 °FPassing clouds.21 mph77%29.95 "HgN/A
9:30 PM57 °FPassing clouds.20 mph72%29.95 "HgN/A
9:00 PM57 °FScattered clouds.18 mph72%29.95 "HgN/A
8:30 PM57 °FScattered clouds.20 mph72%29.95 "HgN/A
8:00 PM57 °FPassing clouds.17 mph77%29.95 "HgN/A
7:30 PM57 °FPassing clouds.22 mph72%29.95 "HgN/A
7:00 PM59 °FPassing clouds.21 mph72%29.95 "HgN/A
6:30 PM59 °FSunny.18 mph72%29.95 "Hg10 mi
6:00 PM59 °FSunny.22 mph72%29.95 "Hg10 mi
5:30 PM61 °FSunny.22 mph68%29.95 "Hg10 mi
5:00 PM61 °FPassing clouds.21 mph68%29.95 "HgN/A
4:30 PM63 °FPassing clouds.23 mph68%29.98 "HgN/A
4:00 PM63 °FPassing clouds.23 mph68%29.95 "HgN/A
3:30 PM63 °FSunny.21 mph68%29.98 "Hg10 mi
3:00 PM64 °FSunny.21 mph68%29.98 "Hg10 mi
2:30 PM64 °FSunny.17 mph64%29.98 "Hg10 mi
2:00 PM63 °FSunny.18 mph68%29.98 "Hg10 mi
Weather by CustomWeather, © 2015

See weather overviewHow to use our weather pages